Home   Weather   Talca   Past weeks

Flag for Chile Past Weather in Talca, Chile — Yesterday and Last 2 Weeks

Now
63 °F

Passing clouds.


Feels Like: 63 °F
Forecast: 46 / 65 °F
Wind: 12 mph from Southwest

Location: Concepcion Airport

Current Time: Apr 23, 2017 at 5:11:29 pm

Latest Report: Apr 23, 2017 at 4:00 pm


Visibility: N/A

Pressure: 30.07 "Hg

Humidity: 56%

Dew Point: 46 °F

Location of TalcaLocation

Past Weather in Talca — Graph

°F

Talca Temperature Yesterday

Maximum temperature yesterday: 66 °F (at 3:00 pm)
Minimum temperature yesterday: 46 °F (at 9:00 am)
Average temperature yesterday: 57 °F

High & Low Weather Summary for the Past Weeks

 TemperatureHumidityPressure
High75 °F (Apr 11, 1:00 pm)100% (Apr 12, 12:00 am)30.18 "Hg (Apr 12, 12:00 am)
Low46 °F (Apr 9, 7:00 am)50% (Apr 11, 1:00 pm)29.80 "Hg (Apr 11, 6:00 pm)
Average59 °F84%30.01 "Hg
* Reported Apr 8 3:00 pm — Apr 23 3:00 pm, Talca, Weather by CustomWeather, © 2017

Note: Actual official high and low records may vary slightly from our data, if they occured in-between our weather recording intervals... More about our weather records

Advertising

Talca Weather History for the Previous 24 Hours

Scroll right to see more
 ConditionsComfort  
Time TempWeatherWind HumidityBarometerVisibility
3:00 pm
Sun, Apr 23
63 °FSunny.12 mph56%30.09 "Hg10 mi
2:00 pm63 °FSunny.13 mph52%30.09 "Hg10 mi
1:00 pm61 °FPassing clouds.10 mph55%30.09 "HgN/A
12:00 pm59 °FPassing clouds.5 mph68%30.09 "HgN/A
11:00 am55 °FSunny.1 mph82%30.09 "Hg10 mi
10:00 am52 °FSunny.2 mph88%30.09 "Hg10 mi
9:00 am48 °FSunny.No wind94%30.07 "Hg10 mi
8:00 am48 °FClear.2 mph94%30.07 "Hg10 mi
7:00 am48 °FClear.No wind94%30.07 "Hg10 mi
6:00 am50 °FClear.2 mph94%30.07 "Hg10 mi
5:00 am50 °FClear.1 mph94%30.04 "Hg10 mi
4:00 am50 °FClear.2 mph94%30.07 "Hg10 mi
3:00 am52 °FClear.10 mph94%30.07 "Hg10 mi
2:00 am52 °FClear.3 mph94%30.07 "Hg10 mi
1:00 am54 °FClear.7 mph94%30.09 "Hg10 mi
12:00 am54 °FClear.6 mph88%30.09 "Hg10 mi
11:00 pm
Sat, Apr 22
55 °FPassing clouds.7 mph88%30.09 "HgN/A
10:00 pm57 °FPassing clouds.7 mph88%30.09 "HgN/A
9:00 pm59 °FClear.10 mph88%30.09 "Hg10 mi
8:00 pm59 °FPassing clouds.5 mph88%30.09 "HgN/A
7:00 pm63 °FPassing clouds.6 mph77%30.09 "HgN/A
6:00 pm63 °FPassing clouds.9 mph77%30.12 "HgN/A
5:00 pm64 °FSunny.14 mph68%30.12 "Hg10 mi
Weather by CustomWeather, © 2017

See weather overviewHow to use our weather pages